QPF
0.04 0.03 0.03 0.03 0.03 0.02 0.01 0.01 0.01 0.01 0.01 0.01 0.01 0.01 0.01 0.01 0.02 0.02 0.02 0.02 0.02 0.02 0.02 0.02 0.02 0.02 0.01 0.01 0.02 0.03 0.06 0.07 0.06 0.04 0.04 0.04 0.02 0.02 0.03 0.02 0.02 0.03 0.03
0.03 0.03 0.03 0.03 0.02 0.02 0.01 0.01 0.01 0.01 0.01 0.01 0.01 0.02 0.02 0.02 0.01 0.01 0.02 0.02 0.03 0.01 0.01 0.01 0.01 0.02 0.01 0.02 0.02 0.02 0.03 0.05 0.05 0.04 0.04 0.05 0.03 0.01 0.02 0.03 0.02 0.03 0.03
0.04 0.04 0.03 0.02 0.02 0.02 0.01 0.01 0.01 0.00 0.01 0.02 0.01 0.01 0.01 0.01 0.00 0.00 0.01 0.02 0.03 0.01 0.00 0.01 0.01 0.01 0.01 0.02 0.02 0.02 0.03 0.03 0.03 0.03 0.03 0.05 0.05 0.03 0.03 0.03 0.03 0.03 0.03
0.05 0.04 0.03 0.03 0.02 0.02 0.02 0.01 0.01 0.01 0.01 0.01 0.01 0.01 0.01 0.01 0.01 0.00 0.01 0.01 0.02 0.02 0.02 0.02 0.02 0.01 0.02 0.02 0.02 0.02 0.03 0.03 0.03 0.02 0.03 0.04 0.04 0.04 0.04 0.04 0.03 0.03 0.03
0.07 0.05 0.04 0.03 0.02 0.02 0.02 0.02 0.02 0.02 0.02 0.02 0.03 0.02 0.01 0.01 0.01 0.01 0.01 0.01 0.01 0.02 0.02 0.03 0.02 0.02 0.02 0.02 0.02 0.02 0.03 0.03 0.03 0.03 0.03 0.04 0.04 0.04 0.04 0.03 0.03 0.04 0.04
0.05 0.05 0.05 0.04 0.03 0.03 0.03 0.03 0.03 0.03 0.03 0.03 0.05 0.05 0.03 0.02 0.02 0.02 0.01 0.01 0.01 0.01 0.02 0.03 0.03 0.04 0.04 0.03 0.02 0.03 0.03 0.04 0.03 0.03 0.03 0.03 0.04 0.05 0.04 0.03 0.03 0.04 0.05
0.04 0.04 0.04 0.04 0.04 0.04 0.04 0.05 0.04 0.04 0.03 0.03 0.03 0.05 0.04 0.01 0.01 0.00 0.00 0.00 0.00 0.01 0.01 0.02 0.02 0.02 0.03 0.03 0.03 0.03 0.03 0.04 0.04 0.04 0.03 0.02 0.03 0.03 0.04 0.02 0.02 0.04 0.04
0.03 0.02 0.01 0.01 0.01 0.01 0.01 0.02 0.01 0.01 0.01 0.01 0.01 0.02 0.03 0.01 0.00 0.01 0.00 0.00 0.00 0.00 0.00 0.01 0.02 0.02 0.02 0.03 0.03 0.03 0.03 0.04 0.05 0.05 0.03 0.03 0.03 0.04 0.05 0.04 0.03 0.03 0.03
0.05 0.03 0.01 0.01 0.01 0.00 0.00 0.01 0.01 0.00 0.00 0.01 0.01 0.01 0.02 0.01 0.00 0.00 0.01 0.01 0.00 0.00 0.00 0.01 0.02 0.01 0.02 0.02 0.02 0.03 0.03 0.04 0.05 0.05 0.04 0.05 0.05 0.06 0.05 0.05 0.04 0.03 0.03
0.08 0.06 0.04 0.03 0.02 0.02 0.01 0.01 0.00 0.00 0.00 0.01 0.01 0.02 0.01 0.00 0.00 0.00 0.00 0.00 0.01 0.00 0.00 0.01 0.02 0.02 0.03 0.03 0.02 0.02 0.03 0.04 0.03 0.02 0.04 0.06 0.04 0.03 0.03 0.02 0.02 0.02 0.01
0.06 0.05 0.04 0.04 0.04 0.03 0.02 0.01 0.01 0.00 0.00 0.01 0.01 0.01 0.01 0.00 0.00 0.00 0.00 0.00 0.00 0.00 0.00 0.01 0.01 0.02 0.03 0.03 0.03 0.03 0.04 0.04 0.03 0.03 0.04 0.05 0.03 0.02 0.01 0.01 0.01 0.01 0.01
0.05 0.05 0.05 0.04 0.04 0.04 0.02 0.01 0.01 0.00 0.00 0.00 0.01 0.01 0.01 0.00 0.00 0.00 0.00 0.00 0.00 0.01 0.01 0.01 0.01 0.02 0.03 0.03 0.02 0.03 0.03 0.03 0.02 0.03 0.03 0.03 0.03 0.01 0.01 0.01 0.01 0.01 0.01
0.04 0.05 0.05 0.04 0.04 0.04 0.02 0.01 0.00 0.00 0.00 0.00 0.00 0.00 0.00 0.00 0.01 0.01 0.01 0.01 0.01 0.01 0.01 0.01 0.02 0.02 0.02 0.02 0.02 0.02 0.02 0.02 0.03 0.03 0.02 0.02 0.02 0.01 0.01 0.01 0.01 0.01 0.02
0.04 0.05 0.06 0.05 0.04 0.05 0.04 0.01 0.00 0.00 0.01 0.00 0.00 0.00 0.00 0.01 0.01 0.01 0.01 0.02 0.02 0.02 0.02 0.02 0.02 0.02 0.02 0.02 0.02 0.02 0.02 0.03 0.03 0.02 0.01 0.01 0.00 0.00 0.00 0.00 0.00 0.01 0.02
0.02 0.03 0.04 0.04 0.03 0.04 0.04 0.03 0.01 0.00 0.00 0.00 0.00 0.00 0.00 0.01 0.02 0.02 0.02 0.02 0.02 0.02 0.01 0.01 0.01 0.01 0.01 0.01 0.02 0.02 0.03 0.03 0.02 0.01 0.01 0.00 0.00 0.00 0.00 0.00 0.00 0.00 0.01
0.01 0.02 0.02 0.01 0.01 0.02 0.02 0.02 0.01 0.01 0.00 0.00 0.00 0.00 0.00 0.00 0.01 0.02 0.02 0.02 0.03 0.01 0.01 0.00 0.01 0.01 0.00 0.01 0.01 0.01 0.01 0.01 0.00 0.00 0.00 0.00 0.00 0.00 0.00 0.00 0.00 0.00 0.01
0.01 0.02 0.01 0.01 0.00 0.01 0.01 0.01 0.01 0.01 0.01 0.00 0.00 0.00 0.00 0.00 0.00 0.00 0.01 0.02 0.03 0.02 0.01 0.00 0.00 0.00 0.00 0.00 0.00 0.00 0.00 0.00 0.00 0.00 0.00 0.00 0.00 0.00 0.00 0.00 0.00 0.01 0.01
0.00 0.00 0.00 0.00 0.00 0.00 0.00 0.00 0.00 0.00 0.00 0.00 0.00 0.00 0.00 0.00 0.00 0.00 0.01 0.03 0.04 0.02 0.00 0.00 0.00 0.00 0.00 0.00 0.00 0.00 0.00 0.00 0.00 0.00 0.01 0.01 0.01 0.01 0.01 0.01 0.01 0.01 0.01
0.00 0.00 0.00 0.00 0.00 0.00 0.00 0.00 0.00 0.00 0.01 0.01 0.01 0.01 0.01 0.01 0.00 0.00 0.01 0.04 0.05 0.02 0.00 0.00 0.00 0.00 0.00 0.00 0.00 0.00 0.00 0.00 0.00 0.00 0.00 0.00 0.00 0.01 0.01 0.01 0.01 0.00 0.00
0.00 0.00 0.00 0.00 0.00 0.00 0.00 0.00 0.00 0.00 0.01 0.01 0.01 0.01 0.01 0.01 0.00 0.00 0.02 0.05 0.07 0.03 0.00 0.00 0.00 0.00 0.00 0.00 0.00 0.00 0.00 0.00 0.00 0.00 0.00 0.00 0.00 0.00 0.00 0.00 0.00 0.00 0.01
0.00 0.00 0.00 0.00 0.00 0.01 0.00 0.00 0.00 0.00 0.01 0.01 0.01 0.02 0.02 0.01 0.01 0.01 0.03 0.06 0.07 0.02 0.00 0.00 0.00 0.00 0.00 0.00 0.00 0.00 0.00 0.00 0.00 0.00 0.00 0.00 0.00 0.00 0.00 0.00 0.00 0.00 0.00
0.00 0.00 0.00 0.00 0.00 0.01 0.00 0.00 0.00 0.00 0.00 0.01 0.01 0.01 0.02 0.01 0.01 0.01 0.02 0.05 0.04 0.01 0.00 0.00 0.00 0.00 0.00 0.00 0.00 0.00 0.00 0.00 0.00 0.00 0.01 0.01 0.01 0.01 0.01 0.01 0.01 0.00 0.00
0.00 0.00 0.00 0.00 0.00 0.01 0.01 0.00 0.00 0.00 0.00 0.00 0.00 0.00 0.01 0.01 0.01 0.01 0.01 0.03 0.03 0.01 0.00 0.00 0.00 0.00 0.00 0.00 0.00 0.00 0.00 0.01 0.01 0.01 0.01 0.01 0.01 0.01 0.01 0.00 0.00 0.00 0.00
0.00 0.00 0.00 0.00 0.00 0.00 0.01 0.00 0.00 0.00 0.00 0.00 0.00 0.00 0.00 0.00 0.00 0.00 0.01 0.01 0.01 0.01 0.00 0.00 0.00 0.00 0.00 0.00 0.00 0.00 0.00 0.01 0.01 0.01 0.01 0.00 0.00 0.00 0.00 0.00 0.00 0.00 0.00
0.00 0.00 0.00 0.00 0.00 0.00 0.00 0.00 0.00 0.00 0.00 0.00 0.00 0.00 0.00 0.00 0.00 0.00 0.00 0.00 0.00 0.00 0.00 0.00 0.00 0.00 0.00 0.00 0.00 0.00 0.00 0.00 0.00 0.00 0.00 0.01 0.00 0.00 0.00 0.00 0.00 0.00 0.00
0.00 0.00 0.00 0.00 0.00 0.00 0.00 0.00 0.00 0.01 0.00 0.00 0.00 0.01 0.01 0.01 0.01 0.01 0.01 0.01 0.01 0.00 0.00 0.00 0.00 0.00 0.00 0.00 0.00 0.00 0.00 0.01 0.01 0.01 0.01 0.01 0.01 0.01 0.00 0.00 0.00 0.00 0.00
MSLP
1023.41 1023.34 1023.31 1023.27 1023.19 1023.05 1022.82 1022.51 1022.13 1021.69 1021.23 1020.75 1020.27 1019.82 1019.41 1019.02 1018.66 1018.33 1018.01 1017.69 1017.36 1017.00 1016.60 1016.17 1015.72 1015.28 1014.87 1014.54 1014.33 1014.28 1014.39 1014.68 1015.11 1015.66 1016.27 1016.87 1017.43 1017.89 1018.24 1018.48 1018.62 1018.70 1018.76
1023.32 1023.24 1023.20 1023.15 1023.08 1022.95 1022.74 1022.46 1022.09 1021.66 1021.17 1020.66 1020.13 1019.61 1019.12 1018.67 1018.26 1017.88 1017.54 1017.21 1016.88 1016.54 1016.15 1015.74 1015.29 1014.84 1014.42 1014.06 1013.83 1013.75 1013.85 1014.13 1014.58 1015.17 1015.84 1016.52 1017.18 1017.75 1018.21 1018.56 1018.81 1018.98 1019.12
1023.31 1023.22 1023.16 1023.10 1023.02 1022.89 1022.70 1022.42 1022.06 1021.63 1021.14 1020.60 1020.04 1019.47 1018.92 1018.40 1017.93 1017.50 1017.13 1016.78 1016.44 1016.10 1015.73 1015.32 1014.88 1014.43 1014.00 1013.64 1013.38 1013.28 1013.35 1013.62 1014.08 1014.68 1015.39 1016.13 1016.86 1017.53 1018.10 1018.55 1018.90 1019.15 1019.35
1023.36 1023.26 1023.18 1023.10 1023.00 1022.86 1022.66 1022.38 1022.04 1021.62 1021.14 1020.59 1020.01 1019.41 1018.82 1018.25 1017.73 1017.26 1016.83 1016.45 1016.10 1015.74 1015.37 1014.97 1014.54 1014.10 1013.67 1013.30 1013.03 1012.91 1012.97 1013.22 1013.66 1014.26 1014.98 1015.76 1016.54 1017.27 1017.92 1018.45 1018.88 1019.21 1019.46
1023.42 1023.31 1023.21 1023.09 1022.96 1022.79 1022.58 1022.32 1021.99 1021.60 1021.14 1020.62 1020.05 1019.45 1018.84 1018.25 1017.68 1017.17 1016.70 1016.28 1015.89 1015.51 1015.13 1014.73 1014.31 1013.87 1013.45 1013.09 1012.81 1012.68 1012.72 1012.94 1013.36 1013.94 1014.65 1015.44 1016.24 1017.01 1017.70 1018.29 1018.77 1019.15 1019.43
1023.47 1023.34 1023.20 1023.04 1022.87 1022.67 1022.45 1022.19 1021.89 1021.54 1021.13 1020.66 1020.13 1019.56 1018.97 1018.37 1017.79 1017.23 1016.72 1016.26 1015.83 1015.42 1015.01 1014.61 1014.18 1013.76 1013.36 1013.00 1012.74 1012.61 1012.63 1012.84 1013.22 1013.78 1014.46 1015.22 1016.02 1016.78 1017.49 1018.10 1018.61 1019.01 1019.31
1023.47 1023.31 1023.13 1022.92 1022.70 1022.48 1022.24 1022.00 1021.73 1021.43 1021.09 1020.69 1020.24 1019.73 1019.17 1018.59 1018.01 1017.43 1016.89 1016.38 1015.90 1015.45 1015.02 1014.60 1014.18 1013.77 1013.39 1013.06 1012.81 1012.69 1012.71 1012.90 1013.26 1013.77 1014.41 1015.14 1015.89 1016.64 1017.32 1017.93 1018.43 1018.83 1019.13
1023.41 1023.22 1022.99 1022.73 1022.47 1022.21 1021.96 1021.73 1021.50 1021.27 1021.01 1020.70 1020.33 1019.90 1019.41 1018.87 1018.30 1017.73 1017.16 1016.61 1016.09 1015.61 1015.15 1014.71 1014.29 1013.90 1013.54 1013.24 1013.03 1012.93 1012.96 1013.14 1013.47 1013.94 1014.53 1015.20 1015.90 1016.59 1017.24 1017.81 1018.28 1018.66 1018.94
1023.30 1023.07 1022.80 1022.49 1022.19 1021.90 1021.65 1021.43 1021.24 1021.07 1020.88 1020.67 1020.39 1020.05 1019.64 1019.16 1018.62 1018.06 1017.48 1016.91 1016.37 1015.85 1015.37 1014.92 1014.51 1014.14 1013.81 1013.56 1013.38 1013.31 1013.36 1013.54 1013.85 1014.28 1014.81 1015.41 1016.04 1016.66 1017.25 1017.76 1018.19 1018.53 1018.78
1023.18 1022.91 1022.59 1022.25 1021.91 1021.60 1021.34 1021.13 1020.98 1020.85 1020.74 1020.60 1020.42 1020.16 1019.82 1019.41 1018.92 1018.39 1017.82 1017.26 1016.70 1016.17 1015.68 1015.23 1014.83 1014.49 1014.20 1013.98 1013.85 1013.81 1013.88 1014.06 1014.36 1014.75 1015.22 1015.75 1016.30 1016.84 1017.34 1017.79 1018.17 1018.46 1018.67
1023.06 1022.77 1022.42 1022.05 1021.68 1021.35 1021.08 1020.88 1020.74 1020.65 1020.58 1020.51 1020.39 1020.21 1019.95 1019.60 1019.17 1018.68 1018.15 1017.60 1017.06 1016.53 1016.05 1015.62 1015.24 1014.92 1014.67 1014.50 1014.41 1014.41 1014.50 1014.68 1014.95 1015.30 1015.71 1016.17 1016.63 1017.08 1017.50 1017.87 1018.18 1018.42 1018.60
1022.96 1022.66 1022.30 1021.91 1021.53 1021.19 1020.91 1020.70 1020.57 1020.49 1020.44 1020.40 1020.33 1020.20 1020.00 1019.71 1019.35 1018.91 1018.43 1017.92 1017.41 1016.91 1016.46 1016.05 1015.70 1015.42 1015.21 1015.07 1015.02 1015.04 1015.15 1015.33 1015.58 1015.89 1016.24 1016.61 1016.98 1017.34 1017.68 1017.97 1018.21 1018.39 1018.53
1022.89 1022.59 1022.24 1021.86 1021.48 1021.13 1020.84 1020.62 1020.47 1020.37 1020.32 1020.28 1020.22 1020.13 1019.97 1019.74 1019.43 1019.06 1018.64 1018.19 1017.73 1017.28 1016.86 1016.49 1016.17 1015.93 1015.75 1015.65 1015.62 1015.66 1015.78 1015.95 1016.17 1016.43 1016.72 1017.01 1017.30 1017.57 1017.82 1018.02 1018.19 1018.33 1018.42
1022.82 1022.55 1022.23 1021.87 1021.51 1021.17 1020.86 1020.62 1020.43 1020.30 1020.21 1020.15 1020.08 1019.99 1019.85 1019.66 1019.41 1019.11 1018.75 1018.37 1017.97 1017.58 1017.21 1016.88 1016.61 1016.39 1016.24 1016.16 1016.15 1016.21 1016.32 1016.47 1016.67 1016.88 1017.10 1017.32 1017.53 1017.72 1017.88 1018.01 1018.11 1018.19 1018.25
1022.73 1022.51 1022.24 1021.93 1021.59 1021.26 1020.95 1020.68 1020.45 1020.26 1020.12 1020.00 1019.90 1019.79 1019.66 1019.50 1019.29 1019.04 1018.76 1018.44 1018.12 1017.78 1017.47 1017.18 1016.94 1016.75 1016.62 1016.56 1016.56 1016.61 1016.71 1016.85 1017.01 1017.18 1017.35 1017.50 1017.63 1017.74 1017.83 1017.89 1017.93 1017.96 1017.98
1022.59 1022.44 1022.24 1021.98 1021.69 1021.37 1021.06 1020.76 1020.48 1020.23 1020.02 1019.84 1019.69 1019.55 1019.40 1019.25 1019.08 1018.88 1018.65 1018.40 1018.13 1017.86 1017.59 1017.35 1017.14 1016.97 1016.85 1016.79 1016.79 1016.83 1016.92 1017.04 1017.17 1017.30 1017.42 1017.52 1017.59 1017.64 1017.66 1017.67 1017.66 1017.65 1017.64
1022.40 1022.32 1022.19 1022.00 1021.75 1021.46 1021.15 1020.82 1020.50 1020.19 1019.91 1019.67 1019.45 1019.27 1019.10 1018.95 1018.79 1018.62 1018.44 1018.24 1018.03 1017.80 1017.57 1017.36 1017.16 1017.01 1016.90 1016.84 1016.83 1016.86 1016.94 1017.03 1017.14 1017.24 1017.33 1017.39 1017.42 1017.42 1017.40 1017.36 1017.32 1017.27 1017.24
1022.14 1022.14 1022.08 1021.95 1021.76 1021.50 1021.19 1020.85 1020.49 1020.13 1019.79 1019.48 1019.21 1018.98 1018.78 1018.62 1018.46 1018.32 1018.16 1018.00 1017.81 1017.62 1017.42 1017.22 1017.03 1016.88 1016.77 1016.70 1016.68 1016.71 1016.77 1016.85 1016.94 1017.03 1017.09 1017.13 1017.13 1017.11 1017.06 1016.99 1016.92 1016.86 1016.80
1021.84 1021.90 1021.90 1021.83 1021.68 1021.45 1021.15 1020.80 1020.42 1020.02 1019.64 1019.28 1018.96 1018.69 1018.46 1018.28 1018.12 1017.98 1017.84 1017.68 1017.52 1017.33 1017.14 1016.94 1016.76 1016.60 1016.48 1016.40 1016.37 1016.39 1016.44 1016.52 1016.60 1016.68 1016.74 1016.76 1016.75 1016.72 1016.65 1016.58 1016.50 1016.42 1016.36
1021.48 1021.58 1021.63 1021.60 1021.49 1021.29 1021.02 1020.67 1020.28 1019.86 1019.45 1019.06 1018.71 1018.41 1018.16 1017.96 1017.78 1017.63 1017.49 1017.33 1017.16 1016.97 1016.77 1016.57 1016.38 1016.20 1016.07 1015.98 1015.94 1015.94 1015.99 1016.06 1016.14 1016.22 1016.27 1016.30 1016.30 1016.26 1016.20 1016.12 1016.04 1015.96 1015.90
1021.07 1021.19 1021.27 1021.27 1021.19 1021.02 1020.76 1020.43 1020.05 1019.64 1019.22 1018.82 1018.45 1018.14 1017.87 1017.64 1017.45 1017.28 1017.12 1016.95 1016.76 1016.55 1016.34 1016.11 1015.90 1015.71 1015.55 1015.45 1015.40 1015.39 1015.43 1015.50 1015.58 1015.66 1015.72 1015.76 1015.76 1015.73 1015.68 1015.61 1015.54 1015.47 1015.40
1020.59 1020.72 1020.80 1020.82 1020.76 1020.61 1020.38 1020.08 1019.72 1019.33 1018.92 1018.53 1018.16 1017.84 1017.56 1017.32 1017.11 1016.91 1016.72 1016.52 1016.31 1016.08 1015.83 1015.58 1015.34 1015.13 1014.96 1014.84 1014.78 1014.76 1014.79 1014.86 1014.94 1015.02 1015.08 1015.12 1015.13 1015.12 1015.08 1015.02 1014.96 1014.89 1014.84
1020.03 1020.14 1020.22 1020.24 1020.19 1020.07 1019.87 1019.60 1019.27 1018.91 1018.53 1018.16 1017.81 1017.48 1017.20 1016.94 1016.71 1016.49 1016.27 1016.04 1015.79 1015.52 1015.25 1014.98 1014.71 1014.48 1014.30 1014.16 1014.08 1014.06 1014.08 1014.14 1014.21 1014.29 1014.35 1014.40 1014.41 1014.40 1014.37 1014.32 1014.26 1014.21 1014.15
1019.36 1019.45 1019.52 1019.54 1019.50 1019.39 1019.22 1018.99 1018.70 1018.37 1018.03 1017.68 1017.35 1017.03 1016.74 1016.48 1016.22 1015.97 1015.72 1015.46 1015.18 1014.88 1014.58 1014.29 1014.01 1013.77 1013.57 1013.42 1013.34 1013.30 1013.32 1013.36 1013.43 1013.50 1013.55 1013.59 1013.60 1013.58 1013.55 1013.50 1013.45 1013.39 1013.34
1018.61 1018.67 1018.72 1018.74 1018.70 1018.62 1018.47 1018.26 1018.01 1017.72 1017.41 1017.09 1016.77 1016.46 1016.17 1015.89 1015.61 1015.34 1015.06 1014.76 1014.46 1014.14 1013.83 1013.52 1013.24 1012.99 1012.79 1012.65 1012.56 1012.52 1012.53 1012.56 1012.61 1012.66 1012.70 1012.72 1012.71 1012.69 1012.64 1012.58 1012.52 1012.45 1012.39
1017.79 1017.83 1017.87 1017.88 1017.85 1017.77 1017.64 1017.46 1017.24 1016.97 1016.68 1016.38 1016.07 1015.77 1015.46 1015.17 1014.87 1014.58 1014.27 1013.96 1013.64 1013.32 1013.00 1012.70 1012.43 1012.19 1012.00 1011.87 1011.78 1011.74 1011.74 1011.77 1011.80 1011.83 1011.84 1011.83 1011.80 1011.75 1011.68 1011.60 1011.52 1011.43 1011.35
Thickness
5611 5608 5604 5601 5598 5595 5591 5587 5584 5582 5580 5579 5578 5577 5576 5575 5575 5575 5575 5576 5576 5576 5577 5578 5578 5579 5580 5581 5582 5583 5584 5584 5585 5586 5587 5589 5591 5594 5597 5599 5601 5604 5606
5605 5602 5598 5595 5592 5588 5585 5582 5579 5576 5574 5573 5572 5570 5569 5569 5569 5569 5569 5569 5570 5570 5571 5572 5573 5574 5574 5575 5576 5578 5578 5579 5580 5581 5581 5583 5585 5587 5590 5593 5595 5598 5599
5600 5596 5592 5589 5586 5582 5579 5577 5574 5571 5569 5568 5567 5565 5564 5563 5563 5563 5563 5564 5564 5564 5565 5567 5568 5569 5570 5571 5572 5573 5574 5575 5576 5576 5576 5577 5579 5581 5584 5587 5590 5591 5594
5594 5590 5586 5583 5580 5577 5574 5572 5569 5567 5565 5564 5562 5561 5559 5558 5558 5558 5559 5559 5560 5560 5561 5562 5563 5564 5566 5567 5568 5569 5570 5571 5571 5572 5572 5573 5574 5576 5579 5581 5584 5586 5588
5589 5585 5582 5579 5576 5573 5570 5567 5565 5562 5561 5559 5558 5556 5555 5554 5554 5554 5554 5555 5555 5556 5558 5559 5560 5561 5562 5563 5564 5565 5566 5567 5567 5568 5568 5569 5571 5573 5575 5577 5579 5581 5583
5584 5581 5578 5575 5573 5570 5567 5564 5561 5559 5557 5555 5554 5552 5551 5551 5551 5551 5551 5551 5551 5552 5554 5555 5557 5558 5559 5559 5561 5562 5563 5564 5565 5566 5566 5567 5568 5570 5571 5573 5575 5577 5579
5581 5578 5575 5572 5569 5566 5564 5561 5558 5555 5553 5552 5551 5550 5549 5549 5549 5548 5548 5548 5548 5549 5550 5551 5553 5554 5555 5556 5558 5559 5561 5562 5563 5564 5565 5566 5568 5569 5570 5571 5572 5573 5575
5577 5574 5572 5569 5567 5564 5561 5558 5555 5553 5551 5550 5549 5548 5548 5548 5547 5547 5547 5547 5547 5547 5548 5549 5550 5551 5553 5553 5555 5558 5559 5560 5561 5562 5564 5565 5566 5567 5568 5569 5569 5569 5571
5574 5572 5570 5567 5565 5562 5559 5556 5554 5552 5550 5549 5548 5547 5546 5547 5547 5547 5546 5546 5546 5546 5547 5548 5549 5550 5551 5552 5554 5556 5557 5558 5560 5561 5562 5564 5565 5566 5566 5566 5567 5568 5569
5572 5570 5568 5565 5562 5560 5558 5555 5553 5551 5549 5548 5548 5547 5547 5546 5547 5547 5546 5546 5546 5546 5548 5548 5549 5549 5551 5552 5553 5555 5556 5557 5559 5560 5562 5563 5564 5564 5565 5565 5566 5566 5567
5571 5568 5566 5564 5561 5559 5556 5554 5552 5550 5549 5548 5547 5547 5547 5547 5547 5547 5547 5546 5546 5547 5548 5549 5550 5551 5552 5553 5554 5555 5556 5557 5558 5559 5561 5562 5563 5564 5564 5565 5564 5565 5565
5570 5567 5565 5563 5561 5559 5556 5554 5552 5550 5549 5548 5548 5548 5549 5548 5548 5548 5548 5548 5548 5548 5549 5550 5552 5553 5554 5555 5556 5557 5558 5558 5558 5560 5561 5562 5563 5564 5564 5564 5564 5564 5564
5569 5566 5564 5563 5560 5558 5556 5554 5552 5551 5549 5549 5548 5549 5549 5550 5550 5550 5550 5550 5550 5550 5551 5553 5554 5555 5557 5558 5559 5559 5560 5560 5560 5560 5561 5562 5562 5562 5563 5564 5565 5565 5565
5568 5566 5564 5562 5560 5558 5556 5555 5553 5552 5551 5550 5550 5550 5551 5551 5552 5553 5553 5553 5553 5554 5554 5555 5556 5557 5559 5559 5560 5560 5561 5561 5561 5561 5561 5562 5562 5563 5563 5564 5564 5565 5566
5569 5566 5564 5563 5561 5559 5557 5556 5555 5554 5553 5552 5552 5552 5552 5554 5556 5555 5554 5555 5555 5555 5556 5557 5559 5560 5561 5562 5562 5562 5562 5562 5562 5562 5562 5563 5563 5564 5564 5564 5564 5564 5565
5570 5568 5566 5564 5562 5560 5559 5558 5559 5558 5558 5557 5556 5555 5555 5556 5558 5558 5558 5558 5557 5557 5557 5559 5560 5561 5562 5563 5564 5564 5565 5565 5565 5564 5565 5565 5565 5565 5566 5565 5564 5564 5565
5572 5570 5568 5566 5564 5562 5561 5560 5560 5561 5562 5562 5561 5560 5559 5560 5561 5561 5562 5561 5561 5560 5560 5562 5562 5563 5564 5565 5565 5565 5566 5567 5566 5566 5566 5566 5566 5566 5566 5566 5566 5565 5566
5575 5573 5571 5569 5567 5565 5564 5562 5561 5561 5562 5563 5564 5564 5564 5564 5564 5565 5564 5564 5565 5564 5564 5564 5566 5566 5567 5567 5568 5568 5568 5568 5568 5568 5567 5567 5567 5567 5567 5567 5566 5566 5566
5578 5576 5574 5572 5570 5568 5567 5565 5564 5563 5563 5564 5565 5568 5568 5568 5568 5568 5567 5566 5567 5569 5569 5569 5569 5569 5570 5570 5570 5570 5570 5570 5570 5570 5569 5568 5568 5567 5567 5568 5567 5565 5564
5581 5580 5578 5575 5574 5572 5570 5569 5568 5567 5567 5567 5568 5570 5570 5570 5570 5571 5570 5569 5570 5571 5572 5573 5574 5574 5574 5574 5573 5573 5572 5572 5572 5572 5571 5570 5569 5568 5568 5568 5567 5566 5566
5585 5584 5581 5579 5577 5576 5575 5573 5572 5571 5571 5572 5573 5574 5573 5572 5574 5575 5575 5575 5576 5576 5577 5577 5578 5578 5578 5577 5577 5576 5576 5576 5575 5574 5573 5573 5572 5570 5569 5568 5567 5566 5565
5589 5587 5585 5583 5581 5580 5579 5578 5576 5576 5576 5576 5577 5579 5578 5577 5578 5579 5580 5581 5582 5582 5582 5581 5582 5582 5582 5582 5581 5580 5579 5578 5578 5577 5576 5575 5573 5571 5570 5568 5567 5565 5564
5593 5591 5589 5587 5585 5584 5582 5582 5581 5580 5580 5580 5581 5582 5582 5582 5583 5583 5585 5585 5586 5586 5586 5585 5585 5586 5586 5585 5584 5583 5582 5582 5581 5580 5577 5576 5574 5572 5570 5568 5567 5565 5564
5597 5595 5593 5591 5589 5588 5587 5586 5585 5585 5585 5585 5585 5585 5586 5586 5586 5587 5588 5589 5589 5589 5589 5588 5588 5588 5589 5588 5586 5585 5584 5584 5582 5579 5577 5575 5574 5572 5570 5568 5566 5565 5563
5601 5599 5597 5595 5593 5592 5590 5589 5589 5589 5588 5588 5588 5589 5589 5589 5590 5590 5591 5591 5591 5592 5592 5591 5590 5590 5590 5589 5588 5587 5587 5585 5582 5579 5576 5573 5571 5570 5568 5566 5564 5562 5560
5605 5603 5601 5599 5597 5595 5593 5592 5592 5591 5591 5591 5591 5591 5591 5591 5592 5592 5592 5592 5592 5592 5593 5592 5592 5591 5591 5590 5589 5588 5586 5584 5581 5578 5573 5571 5569 5567 5565 5563 5562 5560 5557